,,Stat5,,Stat1,,Stat2,,Stat3,,Stat4,,Wind1,,Wind1,
time,status,PA1M_AVG,status,PR1M_SUM,status,RH1M_AVG,status,SR1M_AVG,status,TA1M_AVG,status,W1dAve1m,status,W1sAve1m,
2002-09-09, 00:00:02,VALID,918.933,VALID,0,VALID,97.6847,VALID,0,VALID,18.8711,VALID,112,VALID,0.148037,
2002-09-09, 00:01:00,VALID,918.931,VALID,0,VALID,97.204,VALID,-0.0169808,VALID,18.7255,VALID,112,VALID,0,
2002-09-09, 00:03:00,INVALID,0,VALID,0,VALID,97.2091,VALID,-0.020377,VALID,18.5286,VALID,48,VALID,0.489014,
2002-09-09, 00:04:00,VALID,918.872,VALID,0,VALID,97.349,VALID,0,VALID,18.499,VALID,46,VALID,0.572266,
2002-09-09, 00:05:00,VALID,918.852,VALID,0,VALID,97.4698,VALID,0,VALID,18.4662,VALID,42,VALID,0.685697,
2002-09-09, 00:07:00,INVALID,0,VALID,0,VALID,97.3525,VALID,-0.020377,VALID,18.3077,VALID,41,VALID,0.533936,
2002-09-09, 00:08:00,VALID,918.819,VALID,0,VALID,97.5575,VALID,0,VALID,18.2568,VALID,41,VALID,0.396094,
2002-09-09, 00:09:00,VALID,918.817,VALID,0,VALID,97.7444,VALID,-0.0169808,VALID,18.2344,VALID,41,VALID,0.189103,
2002-09-09, 00:11:00,INVALID,0,VALID,0,VALID,98.526,VALID,0,VALID,18.3423,VALID,41,VALID,0,
2002-09-09, 00:12:00,VALID,918.817,VALID,0,VALID,98.721,VALID,0.0339617,VALID,18.4185,VALID,41,VALID,0,
2002-09-09, 00:13:00,VALID,918.817,VALID,0,VALID,98.5926,VALID,0,VALID,18.4443,VALID,41,VALID,0,
2002-09-09, 00:15:00,INVALID,0,VALID,0,VALID,97.9843,VALID,0.020377,VALID,18.2449,VALID,41,VALID,0.25293,
2002-09-09, 00:16:00,VALID,918.805,VALID,0,VALID,98.2607,VALID,0.0169808,VALID,18.1987,VALID,70,VALID,0.55332,
2002-09-09, 00:17:00,VALID,918.79,VALID,0,VALID,98.8825,VALID,0,VALID,18.3216,VALID,78,VALID,0.492388,
2002-09-09, 00:19:00,INVALID,0,VALID,0,VALID,98.5717,VALID,-0.101885,VALID,18.3825,VALID,78,VALID,0.60083,
2002-09-09, 00:20:00,VALID,918.785,VALID,0,VALID,98.7363,VALID,-0.101885,VALID,18.3712,VALID,78,VALID,0.622266,
2002-09-09, 00:21:00,VALID,918.781,VALID,0,VALID,98.8164,VALID,-0.101885,VALID,18.3776,VALID,85,VALID,0.639623,
2002-09-09, 00:53:00,INVALID,0,VALID,0,VALID,99.1012,VALID,0,VALID,18.2261,VALID,140,VALID,0.76709,
2002-09-09, 00:54:00,VALID,918.155,VALID,0,VALID,99.072,VALID,-0.0169808,VALID,18.2353,VALID,142,VALID,0.75,
2002-09-09, 00:55:00,VALID,918.144,VALID,0,VALID,99.1216,VALID,-0.0169808,VALID,18.2549,VALID,142,VALID,0.677973,
2002-09-09, 01:27:00,INVALID,0,VALID,0,VALID,99.2111,VALID,-0.101885,VALID,17.8457,VALID,77,VALID,0.11377,
2002-09-09, 01:28:00,VALID,917.814,VALID,0,VALID,99.2182,VALID,-0.101885,VALID,17.8974,VALID,77,VALID,0.0810547,
2002-09-09, 01:29:00,VALID,917.796,VALID,0,VALID,99.1699,VALID,-0.101885,VALID,17.9008,VALID,77,VALID,0.000952744,
2002-09-09, 01:31:00,INVALID,0,VALID,0,VALID,99.1791,VALID,-0.081508,VALID,17.918,VALID,77,VALID,0,
2002-09-09, 01:32:00,VALID,917.736,VALID,0,VALID,99.2386,VALID,-0.0849042,VALID,17.962,VALID,77,VALID,0,
2002-09-09, 01:33:00,VALID,917.721,VALID,0,VALID,99.1585,VALID,-0.0339617,VALID,17.9844,VALID,77,VALID,0,
2002-09-09, 01:35:00,INVALID,0,VALID,0,VALID,98.793,VALID,0.040754,VALID,17.7808,VALID,77,VALID,0.335205,
2002-09-09, 01:36:00,VALID,917.673,VALID,0,VALID,98.838,VALID,0.0849042,VALID,17.7273,VALID,77,VALID,0.272266,
2002-09-09, 01:37:00,VALID,917.665,VALID,0,VALID,98.7325,VALID,0.0169808,VALID,17.6636,VALID,77,VALID,0.0160362,
2002-09-09, 02:09:00,INVALID,0,VALID,0,VALID,98.5811,VALID,-0.061131,VALID,17.4025,VALID,80,VALID,0.436035,
2002-09-09, 02:10:00,VALID,917.247,VALID,0,VALID,98.6549,VALID,-0.0679233,VALID,17.3806,VALID,80,VALID,0.359766,
2002-09-09, 02:11:00,VALID,917.233,VALID,0,VALID,98.8113,VALID,-0.0849042,VALID,17.3909,VALID,80,VALID,0.25343,
2002-09-09, 02:43:00,INVALID,0,VALID,0,VALID,99.3594,VALID,0.020377,VALID,17.5895,VALID,152,VALID,0,
2002-09-09, 02:44:00,VALID,917.201,VALID,0,VALID,99.3708,VALID,0.0169808,VALID,17.6287,VALID,152,VALID,0.0109375,
2002-09-09, 02:45:00,VALID,917.191,VALID,0,VALID,99.3772,VALID,0,VALID,17.6608,VALID,160,VALID,0.376334,
2002-09-09, 03:17:00,INVALID,0,VALID,0,VALID,98.9499,VALID,-0.020377,VALID,17.8125,VALID,116,VALID,0.4021,
2002-09-09, 03:18:00,VALID,917.213,VALID,0,VALID,98.9664,VALID,-0.0169808,VALID,17.7745,VALID,150,VALID,0.616406,
2002-09-09, 03:19:00,VALID,917.194,VALID,0,VALID,99.0898,VALID,-0.0169808,VALID,17.7809,VALID,149,VALID,0.764101,
2002-09-09, 03:21:00,INVALID,0,VALID,0,VALID,99.2157,VALID,-0.061131,VALID,17.8604,VALID,125,VALID,0.575195,
2002-09-09, 03:22:00,VALID,917.13,VALID,0,VALID,99.2119,VALID,-0.0339617,VALID,17.8649,VALID,117,VALID,0.851953,
2002-09-09, 03:23:00,VALID,917.129,VALID,0,VALID,99.2157,VALID,-0.0509425,VALID,17.8905,VALID,94,VALID,0.826923,
2002-09-09, 03:55:00,INVALID,0,VALID,0,VALID,99.4153,VALID,-0.061131,VALID,17.8102,VALID,165,VALID,0.755615,
2002-09-09, 03:56:00,VALID,916.951,VALID,0,VALID,99.3823,VALID,-0.0339617,VALID,17.7874,VALID,176,VALID,0.846289,
2002-09-09, 03:57:00,VALID,916.977,VALID,0,VALID,99.3187,VALID,-0.0339617,VALID,17.7486,VALID,191,VALID,0.455221,
2002-09-09, 03:59:00,INVALID,0,VALID,0,VALID,99.2355,VALID,0,VALID,17.6736,VALID,170,VALID,0.171631,
2002-09-09, 04:00:00,VALID,917.002,VALID,0,VALID,99.2589,VALID,0,VALID,17.6714,VALID,169,VALID,0.249023,
2002-09-09, 04:01:00,VALID,917.015,VALID,0,VALID,99.2627,VALID,-0.0339617,VALID,17.6546,VALID,169,VALID,0.142428,
2002-09-09, 04:33:00,INVALID,0,VALID,0,VALID,99.4992,VALID,-0.081508,VALID,18.0978,VALID,206,VALID,0.349854,
2002-09-09, 04:34:00,VALID,916.97,VALID,0,VALID,99.4687,VALID,-0.0679233,VALID,18.081,VALID,182,VALID,0.364062,
2002-09-09, 04:35:00,VALID,916.974,VALID,0,VALID,99.4547,VALID,-0.0509425,VALID,18.0519,VALID,171,VALID,0.236471,
2002-09-09, 04:37:00,INVALID,0,VALID,0,VALID,99.4263,VALID,0,VALID,18.0492,VALID,171,VALID,0.133545,
2002-09-09, 04:38:00,VALID,916.976,VALID,0,VALID,99.3606,VALID,0.0169808,VALID,17.9675,VALID,167,VALID,0.160156,
2002-09-09, 04:39:00,VALID,916.986,VALID,0,VALID,99.1305,VALID,0,VALID,17.8162,VALID,98,VALID,0.396835,
2002-09-09, 04:41:00,INVALID,0,VALID,0,VALID,98.8754,VALID,0.020377,VALID,17.5223,VALID,51,VALID,0.657715,
2002-09-09, 04:42:00,VALID,916.995,VALID,0,VALID,98.7833,VALID,-0.0169808,VALID,17.3444,VALID,32,VALID,0.914453,
2002-09-09, 04:43:00,VALID,916.989,VALID,0,VALID,99.0211,VALID,0,VALID,17.2957,VALID,28,VALID,0.915064,
2002-09-09, 04:45:00,INVALID,0,VALID,0,VALID,99.324,VALID,0,VALID,17.4259,VALID,23,VALID,0.544434,
2002-09-09, 04:46:00,VALID,917.002,VALID,0,VALID,99.3543,VALID,-0.0169808,VALID,17.4737,VALID,22,VALID,0.589648,
2002-09-09, 04:47:00,VALID,917.018,VALID,0,VALID,99.3187,VALID,-0.0169808,VALID,17.4419,VALID,22,VALID,0.402845,
2002-09-09, 05:19:00,INVALID,0,VALID,0,VALID,99.4179,VALID,0.061131,VALID,18.1673,VALID,7,VALID,0.156006,
2002-09-09, 05:20:00,VALID,917.283,VALID,0,VALID,99.3988,VALID,0.0679233,VALID,18.1348,VALID,7,VALID,0.131055,
2002-09-09, 05:21:00,VALID,917.276,VALID,0,VALID,99.3657,VALID,0.0679233,VALID,18.1184,VALID,7,VALID,0.0074314,
2002-09-09, 05:23:00,INVALID,0,VALID,0,VALID,99.353,VALID,-0.040754,VALID,18.1347,VALID,7,VALID,0.0161133,
2002-09-09, 05:24:00,VALID,917.284,VALID,0,VALID,99.3556,VALID,0,VALID,18.1613,VALID,7,VALID,0.0423828,
2002-09-09, 05:25:00,VALID,917.295,VALID,0,VALID,99.3619,VALID,-0.0509425,VALID,18.1779,VALID,7,VALID,0,
2002-09-09, 05:27:00,INVALID,0,VALID,0,VALID,99.3194,VALID,-0.061131,VALID,18.2081,VALID,43,VALID,0.0854492,
2002-09-09, 05:28:00,VALID,917.291,VALID,0,VALID,99.3339,VALID,0,VALID,18.209,VALID,169,VALID,0.231445,
2002-09-09, 05:29:00,VALID,917.292,VALID,0,VALID,99.3784,VALID,0,VALID,18.2805,VALID,141,VALID,0.116386,
2002-09-09, 05:31:00,INVALID,0,VALID,0,VALID,99.3088,VALID,-0.040754,VALID,18.2892,VALID,141,VALID,0.219971,
2002-09-09, 05:32:00,VALID,917.273,VALID,0,VALID,99.25,VALID,0,VALID,18.2612,VALID,135,VALID,0.425977,
2002-09-09, 05:33:00,VALID,917.254,VALID,0,VALID,99.1864,VALID,-0.0169808,VALID,18.2321,VALID,101,VALID,0.285056,
2002-09-09, 05:35:00,INVALID,0,VALID,0,VALID,99.0753,VALID,0,VALID,18.1884,VALID,95,VALID,0.177246,
2002-09-09, 05:36:00,VALID,917.238,VALID,0,VALID,99.0478,VALID,0,VALID,18.1444,VALID,86,VALID,0.5125,
2002-09-09, 05:37:00,VALID,917.246,VALID,0,VALID,99.0516,VALID,0,VALID,18.1322,VALID,80,VALID,0.44351,
2002-09-09, 05:39:00,INVALID,0,VALID,0,VALID,98.9822,VALID,-0.020377,VALID,18.0874,VALID,64,VALID,0.315674,
2002-09-09, 05:40:00,VALID,917.271,VALID,0,VALID,98.9029,VALID,0.0169808,VALID,18.0254,VALID,63,VALID,0.323633,
2002-09-09, 05:41:00,VALID,917.293,VALID,0,VALID,98.9105,VALID,0,VALID,17.9904,VALID,63,VALID,0.343149,
2002-09-09, 05:43:00,INVALID,0,VALID,0,VALID,98.9166,VALID,-0.020377,VALID,17.9286,VALID,45,VALID,0.416504,
2002-09-09, 05:44:00,VALID,917.317,VALID,0,VALID,99.0237,VALID,-0.0169808,VALID,17.9774,VALID,10,VALID,0.776367,
2002-09-09, 05:45:00,VALID,917.327,VALID,0,VALID,99.2042,VALID,-0.0169808,VALID,18.0935,VALID,12,VALID,0.834936,
2002-09-09, 06:17:00,INVALID,0,VALID,0,VALID,98.4146,VALID,6.45951,VALID,18.3211,VALID,23,VALID,0.173096,
2002-09-09, 06:18:00,VALID,917.86,VALID,0,VALID,98.501,VALID,7.42062,VALID,18.3345,VALID,23,VALID,0.00546875,
2002-09-09, 06:19:00,VALID,917.86,VALID,0,VALID,98.5481,VALID,8.47343,VALID,18.34,VALID,23,VALID,0,
2002-09-09, 06:51:00,INVALID,0,VALID,0,VALID,98.2289,VALID,56.8111,VALID,19.0614,VALID,9,VALID,0.93457,
2002-09-09, 06:52:00,VALID,918.174,VALID,0,VALID,98.0776,VALID,58.7537,VALID,19.1262,VALID,6,VALID,0.927344,
2002-09-09, 06:53:00,VALID,918.174,VALID,0,VALID,97.8907,VALID,60.8253,VALID,19.1943,VALID,13,VALID,0.913491,
2002-09-09, 06:54:00,VALID,918.186,VALID,0,VALID,97.7215,VALID,62.914,VALID,19.2356,VALID,359,VALID,0.781661,
2002-09-09, 06:55:00,VALID,918.198,VALID,0,VALID,97.4647,VALID,65.1385,VALID,19.284,VALID,6,VALID,0.823269,
2002-09-09, 06:56:00,VALID,918.22,VALID,0,VALID,97.2663,VALID,67.5837,VALID,19.3262,VALID,358,VALID,0.850561,
2002-09-09, 06:57:00,VALID,918.245,VALID,0,VALID,97.1658,VALID,70.2327,VALID,19.4,VALID,358,VALID,0.603566,
2002-09-09, 06:58:00,VALID,918.271,VALID,0,VALID,96.9395,VALID,73.0346,VALID,19.4649,VALID,1,VALID,0.651953,
2002-09-09, 06:59:00,VALID,918.293,VALID,0,VALID,96.6598,VALID,76.227,VALID,19.5106,VALID,12,VALID,1.13651,
2002-09-09, 07:00:01,VALID,918.308,VALID,0,VALID,96.3012,VALID,81.1174,VALID,19.5516,VALID,16,VALID,1.1862,
2002-09-09, 07:01:00,VALID,918.313,VALID,0,VALID,96.2287,VALID,89.1663,VALID,19.6192,VALID,15,VALID,0.905382,
2002-09-09, 07:02:00,VALID,918.328,VALID,0,VALID,96.0748,VALID,89.8456,VALID,19.6846,VALID,18,VALID,0.712627,
2002-09-09, 07:03:00,VALID,918.339,VALID,0,VALID,95.8319,VALID,103.498,VALID,19.7164,VALID,2,VALID,0.648438,
2002-09-09, 07:04:00,VALID,918.347,VALID,0,VALID,95.6336,VALID,89.2003,VALID,19.7586,VALID,1,VALID,0.521234,
2002-09-09, 07:05:00,VALID,918.942,VALID,0,VALID,99.4045,VALID,37.8673,VALID,18.1794,VALID,18,VALID,1.31424,
2002-09-09, 07:06:00,VALID,918.942,VALID,0,VALID,99.4039,VALID,38.4955,VALID,18.2058,VALID,19,VALID,1.38602,
2002-09-09, 07:07:00,VALID,918.908,VALID,0,VALID,99.3924,VALID,41.654,VALID,18.1763,VALID,16,VALID,1.30068,
2002-09-09, 07:09:00,INVALID,0,VALID,0,VALID,99.4079,VALID,40.8355,VALID,18.2037,VALID,348,VALID,0.717773,
2002-09-09, 07:10:00,VALID,918.882,VALID,0,VALID,99.4077,VALID,40.754,VALID,18.177,VALID,348,VALID,0.757813,
2002-09-09, 07:11:00,VALID,918.882,VALID,0,VALID,99.4051,VALID,41.7559,VALID,18.1933,VALID,8,VALID,0.695112,
2002-09-09, 07:13:00,INVALID,0,VALID,0,VALID,99.3835,VALID,45.0332,VALID,18.1491,VALID,20,VALID,0.623535,
2002-09-09, 07:14:00,VALID,918.838,VALID,0,VALID,99.4077,VALID,46.2048,VALID,18.1901,VALID,36,VALID,0.862305,
2002-09-09, 07:15:00,VALID,918.816,VALID,0,VALID,99.4013,VALID,46.4935,VALID,18.174,VALID,39,VALID,1.11078,
2002-09-09, 07:17:00,INVALID,0,VALID,0,VALID,99.4049,VALID,51.1055,VALID,18.1613,VALID,39,VALID,0.878906,
2002-09-09, 07:18:00,VALID,918.746,VALID,0,VALID,99.4039,VALID,53.2519,VALID,18.1673,VALID,53,VALID,0.760938,
2002-09-09, 07:19:00,INVALID,0,VALID,0,VALID,92.3121,VALID,112.566,VALID,19.1823,VALID,127,VALID,0.883203,
2002-09-09, 07:20:00,VALID,918.735,VALID,0,VALID,91.8035,VALID,116.081,VALID,19.2241,VALID,134,VALID,0.893164,
2002-09-09, 07:21:00,VALID,918.752,VALID,0,VALID,91.2809,VALID,124.453,VALID,19.2691,VALID,126,VALID,1.00076,
2002-09-09, 07:22:00,VALID,918.763,VALID,0,VALID,91.0583,VALID,130.667,VALID,19.3406,VALID,134,VALID,0.895354,
2002-09-09, 07:23:00,VALID,918.78,VALID,0,VALID,90.8345,VALID,138.733,VALID,19.4018,VALID,129,VALID,0.879012,
2002-09-09, 07:24:00,VALID,918.78,VALID,0,VALID,90.5713,VALID,145.305,VALID,19.4534,VALID,114,VALID,0.996795,
2002-09-09, 07:25:00,VALID,918.786,VALID,0,VALID,90.481,VALID,150.518,VALID,19.5046,VALID,129,VALID,0.938702,
2002-09-09, 07:26:00,VALID,918.79,VALID,0,VALID,90.1911,VALID,151.18,VALID,19.5434,VALID,128,VALID,1.15293,
2002-09-09, 07:27:00,VALID,918.79,VALID,0,VALID,90.3043,VALID,152.844,VALID,19.6142,VALID,111,VALID,0.76398,
2002-09-09, 07:28:00,VALID,918.803,VALID,0,VALID,89.7359,VALID,159.484,VALID,19.6694,VALID,118,VALID,1.23025,
2002-09-09, 07:29:00,VALID,918.81,VALID,0,VALID,89.8579,VALID,170.623,VALID,19.7112,VALID,138,VALID,0.782552,
2002-09-09, 07:30:00,VALID,918.822,VALID,0,VALID,89.849,VALID,183.97,VALID,19.7822,VALID,115,VALID,0.535473,
2002-09-09, 07:31:00,VALID,918.85,VALID,0,VALID,89.3569,VALID,199.44,VALID,19.86,VALID,144,VALID,0.900276,
2002-09-09, 07:32:00,VALID,918.885,VALID,0,VALID,89.0492,VALID,216.064,VALID,19.9467,VALID,159,VALID,0.835537,
2002-09-09, 07:33:00,VALID,918.892,VALID,0,VALID,89.0072,VALID,236.084,VALID,20.0534,VALID,137,VALID,0.842448,
2002-09-09, 07:34:00,VALID,918.915,VALID,0,VALID,88.6258,VALID,235.728,VALID,20.16,VALID,152,VALID,0.416735,
2002-09-09, 07:35:00,VALID,918.931,VALID,0,VALID,87.8068,VALID,207.387,VALID,20.3086,VALID,146,VALID,0.564556,
2002-09-09, 07:36:00,VALID,918.946,VALID,0,VALID,87.5169,VALID,195.093,VALID,20.4344,VALID,144,VALID,0.475781,
2002-09-09, 07:37:00,VALID,918.975,VALID,0,VALID,86.0101,VALID,186.467,VALID,20.5216,VALID,151,VALID,1.05551,
2002-09-09, 07:38:00,VALID,919,VALID,0,VALID,85.7125,VALID,183.053,VALID,20.5763,VALID,146,VALID,1.00185,
2002-09-09, 07:39:00,VALID,919.015,VALID,0,VALID,85.5332,VALID,195.178,VALID,20.5817,VALID,150,VALID,0.956715,
2002-09-09, 07:40:00,VALID,919.042,VALID,0,VALID,86.3267,VALID,196.112,VALID,20.6187,VALID,153,VALID,0.430339,
2002-09-09, 07:41:00,VALID,919.056,VALID,0,VALID,85.3526,VALID,198.71,VALID,20.6709,VALID,149,VALID,0.918658,
2002-09-09, 07:42:00,VALID,919.065,VALID,0,VALID,84.8643,VALID,222.534,VALID,20.7064,VALID,172,VALID,1.21211,
2002-09-09, 07:43:00,VALID,919.079,VALID,0,VALID,84.6876,VALID,223.655,VALID,20.7611,VALID,155,VALID,0.930689,
2002-09-09, 07:44:00,VALID,919.095,VALID,0,VALID,83.9844,VALID,244.507,VALID,20.8031,VALID,165,VALID,0.849873,
2002-09-09, 07:45:00,VALID,919.095,VALID,0,VALID,83.9056,VALID,230.82,VALID,20.8545,VALID,157,VALID,1.33203,
2002-09-09, 07:46:00,VALID,919.082,VALID,0,VALID,83.9691,VALID,220.547,VALID,20.8839,VALID,153,VALID,0.829649,
2002-09-09, 07:47:00,VALID,919.071,VALID,0,VALID,84.3443,VALID,211.87,VALID,20.9351,VALID,151,VALID,0.976974,
2002-09-09, 07:48:00,VALID,919.063,VALID,0,VALID,83.6996,VALID,211.106,VALID,20.948,VALID,152,VALID,1.56065,
2002-09-09, 07:49:00,VALID,919.069,VALID,0,VALID,83.8127,VALID,211.972,VALID,20.9475,VALID,173,VALID,0.594401,
2002-09-09, 07:50:00,VALID,919.069,VALID,0,VALID,84.2743,VALID,212.991,VALID,21.0088,VALID,145,VALID,0.725507,
2002-09-09, 07:51:00,VALID,919.103,VALID,0,VALID,83.5432,VALID,217.185,VALID,21.0708,VALID,154,VALID,0.909821,
2002-09-09, 07:52:00,VALID,919.12,VALID,0,VALID,82.9671,VALID,217.575,VALID,21.1026,VALID,154,VALID,0.955592,
2002-09-09, 07:53:00,VALID,919.134,VALID,0,VALID,83.346,VALID,221.073,VALID,21.1314,VALID,157,VALID,0.958615,
2002-09-09, 07:54:00,VALID,919.16,VALID,0,VALID,83.3791,VALID,227.237,VALID,21.1655,VALID,151,VALID,1.1905,
2002-09-09, 07:55:00,VALID,919.204,VALID,0,VALID,82.7904,VALID,224.809,VALID,21.1419,VALID,165,VALID,1.04814,
2002-09-09, 07:56:00,VALID,919.222,VALID,0,VALID,82.447,VALID,219.715,VALID,21.1747,VALID,154,VALID,1.4125,
2002-09-09, 07:57:00,VALID,919.254,VALID,0,VALID,82.7598,VALID,216.59,VALID,21.1938,VALID,145,VALID,1.20847,
2002-09-09, 07:58:00,VALID,919.278,VALID,0,VALID,82.7268,VALID,211.564,VALID,21.2138,VALID,150,VALID,1.22678,
2002-09-09, 07:59:00,VALID,919.307,VALID,0,VALID,82.9201,VALID,202.921,VALID,21.2356,VALID,136,VALID,0.854384,
2002-09-09, 08:00:00,VALID,919.342,VALID,0,VALID,82.372,VALID,198.676,VALID,21.2585,VALID,152,VALID,1.26316,
2002-09-09, 08:01:00,VALID,919.362,VALID,0,VALID,82.9023,VALID,196.485,VALID,21.2776,VALID,142,VALID,1.12413,
2002-09-09, 08:02:00,VALID,919.391,VALID,0,VALID,82.695,VALID,194.651,VALID,21.294,VALID,137,VALID,1.2702,
2002-09-09, 08:03:00,VALID,919.402,VALID,0,VALID,82.2703,VALID,189.778,VALID,21.2674,VALID,143,VALID,1.57179,
2002-09-09, 08:04:00,VALID,919.41,VALID,0,VALID,82.7026,VALID,186.84,VALID,21.2256,VALID,142,VALID,1.1472,
2002-09-09, 08:05:00,VALID,919.416,VALID,0,VALID,83.9043,VALID,187.757,VALID,21.2057,VALID,145,VALID,0.734581,
2002-09-09, 08:06:00,VALID,919.422,VALID,0,VALID,83.0243,VALID,191.204,VALID,21.2323,VALID,121,VALID,0.999805,
2002-09-09, 08:07:00,VALID,919.421,VALID,0,VALID,83.3473,VALID,196.112,VALID,21.2515,VALID,133,VALID,0.849918,
2002-09-09, 08:08:00,VALID,919.452,VALID,0,VALID,82.9989,VALID,201.868,VALID,21.3061,VALID,152,VALID,1.08553,
2002-09-09, 08:09:00,VALID,919.454,VALID,0,VALID,83.5164,VALID,209,VALID,21.3484,VALID,134,VALID,0.771959,
2002-09-09, 08:10:00,VALID,919.462,VALID,0,VALID,82.4216,VALID,219.155,VALID,21.3993,VALID,140,VALID,1.16385,
2002-09-09, 08:11:00,VALID,919.455,VALID,0,VALID,83.0434,VALID,225.743,VALID,21.4351,VALID,132,VALID,0.797105,
2002-09-09, 08:12:00,VALID,919.469,VALID,0,VALID,83.1642,VALID,222.364,VALID,21.4933,VALID,154,VALID,1.11094,
2002-09-09, 08:13:00,VALID,919.47,VALID,0,VALID,82.5818,VALID,223.094,VALID,21.4976,VALID,147,VALID,1.07833,
2002-09-09, 08:14:00,VALID,919.478,VALID,0,VALID,82.7306,VALID,266.039,VALID,21.5102,VALID,145,VALID,1.08383,
2002-09-09, 08:15:00,VALID,919.471,VALID,0,VALID,83.3626,VALID,455.579,VALID,21.5749,VALID,113,VALID,0.329153,
2002-09-09, 08:16:00,VALID,919.489,VALID,0,VALID,82.2016,VALID,353.065,VALID,21.7305,VALID,104,VALID,1.16902,
2002-09-09, 08:17:00,VALID,919.509,VALID,0,VALID,82.4636,VALID,432.519,VALID,21.8407,VALID,121,VALID,1.09149,
2002-09-09, 08:18:00,VALID,919.51,VALID,0,VALID,82.4,VALID,371.15,VALID,21.9659,VALID,108,VALID,0.966488,
2002-09-09, 08:19:00,VALID,919.53,VALID,0,VALID,80.3387,VALID,398.319,VALID,22.0351,VALID,119,VALID,1.62977,
2002-09-09, 08:20:00,VALID,919.532,VALID,0,VALID,80.2255,VALID,318.883,VALID,22.0645,VALID,124,VALID,1.42441,
2002-09-09, 08:21:00,VALID,919.544,VALID,0,VALID,80.3934,VALID,340.092,VALID,22.0278,VALID,115,VALID,1.47879,
2002-09-09, 08:22:00,VALID,919.544,VALID,0,VALID,80.6591,VALID,359.858,VALID,22.0222,VALID,134,VALID,1.48396,
2002-09-09, 08:23:00,VALID,919.541,VALID,0,VALID,81.108,VALID,311.547,VALID,22.041,VALID,142,VALID,1.26753,
2002-09-09, 08:24:00,VALID,919.548,VALID,0,VALID,80.7927,VALID,351.113,VALID,22.0963,VALID,122,VALID,1.32672,
2002-09-09, 08:25:00,VALID,919.537,VALID,0,VALID,81.1347,VALID,361.929,VALID,22.1636,VALID,131,VALID,1.09692,
2002-09-09, 08:26:00,VALID,919.524,VALID,0,VALID,81.2199,VALID,379.963,VALID,22.2673,VALID,124,VALID,1.02676,
2002-09-09, 08:27:00,VALID,919.524,VALID,0,VALID,82.0795,VALID,398.353,VALID,22.4089,VALID,100,VALID,0.581826,
2002-09-09, 08:28:00,VALID,919.53,VALID,0,VALID,80.7939,VALID,458.007,VALID,22.5826,VALID,64,VALID,0.644748,
2002-09-09, 08:29:00,VALID,919.515,VALID,0,VALID,79.3672,VALID,456.088,VALID,22.7863,VALID,62,VALID,1.25673,
2002-09-09, 08:30:00,VALID,919.491,VALID,0,VALID,78.0536,VALID,473.952,VALID,22.8832,VALID,42,VALID,1.15563,
2002-09-09, 08:31:00,VALID,919.508,VALID,0,VALID,78.5483,VALID,499.321,VALID,23.0875,VALID,73,VALID,0.721137,
2002-09-09, 08:32:00,VALID,919.514,VALID,0,VALID,75.8461,VALID,496.18,VALID,23.3326,VALID,123,VALID,0.998666,
2002-09-09, 08:33:00,VALID,919.521,VALID,0,VALID,75.6859,VALID,480.625,VALID,23.3902,VALID,127,VALID,0.934966,
2002-09-09, 08:34:00,VALID,919.518,VALID,0,VALID,76.7579,VALID,491.884,VALID,23.4995,VALID,87,VALID,0.644737,
2002-09-09, 08:35:00,VALID,919.517,VALID,0,VALID,75.0921,VALID,454.781,VALID,23.6744,VALID,65,VALID,1.32586,
2002-09-09, 08:36:00,VALID,919.494,VALID,0,VALID,75.5117,VALID,456.003,VALID,23.7423,VALID,55,VALID,0.919922,
2002-09-09, 08:37:00,VALID,919.491,VALID,0,VALID,73.205,VALID,422.33,VALID,23.8522,VALID,146,VALID,1.48109,
2002-09-09, 08:38:00,VALID,919.496,VALID,0,VALID,73.0435,VALID,421.481,VALID,23.7905,VALID,141,VALID,1.14823,
2002-09-09, 08:39:00,VALID,919.502,VALID,0,VALID,73.3436,VALID,340.16,VALID,23.7029,VALID,144,VALID,1.50971,
2002-09-09, 08:40:00,VALID,919.492,VALID,0,VALID,74.8161,VALID,382.799,VALID,23.5956,VALID,138,VALID,1.0944,
2002-09-09, 08:41:00,VALID,919.498,VALID,0,VALID,75.2218,VALID,339.905,VALID,23.5833,VALID,107,VALID,0.869945,
2002-09-09, 08:42:00,VALID,919.514,VALID,0,VALID,72.5323,VALID,460.945,VALID,23.57,VALID,90,VALID,1.14746,
2002-09-09, 08:43:00,VALID,919.523,VALID,0,VALID,73.3283,VALID,456.292,VALID,23.543,VALID,76,VALID,1.21474,
2002-09-09, 08:44:00,VALID,919.534,VALID,0,VALID,72.1826,VALID,455.901,VALID,23.5792,VALID,91,VALID,0.532306,
2002-09-09, 08:45:00,VALID,919.538,VALID,0,VALID,71.2709,VALID,447.751,VALID,23.7311,VALID,83,VALID,0.376645,
2002-09-09, 08:46:00,VALID,919.565,VALID,0,VALID,70.7928,VALID,474.495,VALID,23.9274,VALID,67,VALID,1.11833,
2002-09-09, 08:47:00,VALID,919.575,VALID,0,VALID,73.2457,VALID,468.977,VALID,23.9727,VALID,74,VALID,0.770148,
2002-09-09, 08:48:00,VALID,919.593,VALID,0,VALID,70.5537,VALID,431.907,VALID,24.0926,VALID,128,VALID,1.50164,
2002-09-09, 08:49:00,VALID,919.627,VALID,0,VALID,69.8988,VALID,502.616,VALID,24.0532,VALID,94,VALID,1.03277,
2002-09-09, 08:50:00,VALID,919.657,VALID,0,VALID,70.0285,VALID,534.353,VALID,24.0755,VALID,99,VALID,0.372889,
2002-09-09, 08:51:00,VALID,919.688,VALID,0,VALID,68.5662,VALID,605.91,VALID,24.2243,VALID,118,VALID,0.548437,
2002-09-09, 08:52:00,VALID,919.701,VALID,0,VALID,68.0982,VALID,497.453,VALID,24.4512,VALID,72,VALID,0.174342,
2002-09-09, 08:53:00,VALID,919.726,VALID,0,VALID,67.5731,VALID,503.753,VALID,24.6931,VALID,141,VALID,0.426731,
2002-09-09, 08:54:00,VALID,919.75,VALID,0,VALID,66.6664,VALID,542.3,VALID,24.8862,VALID,74,VALID,0.602364,
2002-09-09, 08:55:00,VALID,919.77,VALID,0,VALID,65.8386,VALID,468.654,VALID,25.0896,VALID,29,VALID,0.837838,
2002-09-09, 08:56:00,VALID,919.774,VALID,0,VALID,64.1588,VALID,440.092,VALID,25.2199,VALID,6,VALID,0.80957,
